Terminal Aerodrome Forecast
Issued by NWS

Home | Current Version | Previous Version | Graphics & Text | Print | Product List | Glossary On
Versions: 1 2 3 4 5 6 7 8 9 10 11 12 13 14 15 16 17 18
000
FTUS43 KFGF 261100
TAFBJI
TAF
KBJI 261134Z 2612/2712 26009KT P6SM OVC015
      TEMPO 2614/2618 BKN025
     FM261800 30013KT P6SM BKN025=

USA.gov is the U.S. government's official web portal to all federal, state and local government web resources and services.